Munising, MI

7:36 AM EST on December 08, 2016 (GMT -0500)
Munising

Weather History for KP53 - August, 2013

Change the Weather History Date:

Thursday, August 8, 2013

  Actual Average (KISQ) Record (KISQ)
Temperature  
Mean Temperature 57 °F -  
Max Temperature 69 °F 74 °F 90 °F (1961)
Min Temperature 46 °F 56 °F 37 °F (1972)
Degree Days  
Heating Degree Days 8    
Growing Degree Days 7 (Base 50)    
Moisture  
Dew Point 50 °F    
Average Humidity 75    
Maximum Humidity 90    
Minimum Humidity 52    
Precipitation  
Precipitation 0.04 in - - ()
Sea Level Pressure  
Sea Level Pressure 30.00 in    
Wind  
Wind Speed 8 mph (SE)    
Max Wind Speed 12 mph    
Max Gust Speed -    
Averages and records for this station are not official NWS values.
T = Trace of Precipitation, MM = Missing Value Source: NWS Daily Summary

Daily Weather History Graph

Daily Weather History Graph

Search for Another Location

Airport or City:

Trip Planner

Search our weather history database for the weather conditions in past years. The results will help you decide how hot, cold, wet, or windy it might be!

Date:

Astronomy

Aug. 08, 2013 Rise Set
Actual Time 6:36 AM EDT 9:06 PM EDT
Civil Twilight 6:02 AM EDT 9:40 PM EDT
Nautical Twilight 5:20 AM EDT 10:22 PM EDT
Astronomical Twilight 4:31 AM EDT 11:11 PM EDT
Moon 8:33 AM EDT 9:33 PM EDT
Length of Visible Light 15h 37m
Length of Day
14h 30m
Waxing Crescent, 3% of the Moon is Illuminated
Aug 8
Waxing Crescent
Aug 14
First Quarter
Aug 20
Full
Aug 28
Last Quarter
Sep 5
New

Hourly Weather History & Observations

Time (EDT) Temp. Dew Point Humidity Pressure Visibility Wind Dir Wind Speed Gust Speed Precip Events Conditions
12:56 AM 48.9 °F 46.0 °F 90% 29.99 in - South 8.1 mph - N/A   Unknown
1:56 AM 48.0 °F 44.1 °F 86% 29.99 in - South 9.2 mph - N/A   Unknown
2:56 AM 46.9 °F 44.1 °F 90% 29.99 in - South 10.4 mph - N/A   Unknown
3:56 AM 48.9 °F 43.0 °F 80% 29.99 in - South 8.1 mph - N/A   Unknown
4:56 AM 52.0 °F 43.0 °F 71% 30.00 in - SSW 9.2 mph - N/A   Unknown
5:56 AM 50.0 °F 44.1 °F 80% 30.00 in - South 8.1 mph - N/A   Unknown
6:56 AM 48.0 °F 44.1 °F 86% 30.01 in - South 9.2 mph - N/A   Unknown
7:56 AM 51.1 °F 46.0 °F 83% 30.00 in - South 6.9 mph - N/A   Unknown
8:56 AM 57.9 °F 50.0 °F 75% 30.00 in - South 4.6 mph - N/A   Unknown
9:56 AM 64.0 °F 51.1 °F 63% 30.01 in - East 3.5 mph - N/A   Unknown
10:56 AM 64.9 °F 54.0 °F 68% 30.02 in - ENE 6.9 mph - N/A   Unknown
11:56 AM 68.0 °F 54.0 °F 61% 30.03 in - ENE 8.1 mph - N/A   Unknown
12:56 PM 68.0 °F 50.0 °F 52% 30.03 in - NNW 11.5 mph - N/A   Unknown
1:56 PM 68.0 °F 57.0 °F 68% 30.03 in - NE 6.9 mph - N/A   Unknown
2:56 PM 66.0 °F 55.0 °F 68% 30.03 in - NE 10.4 mph - N/A   Unknown
3:56 PM 64.9 °F 55.9 °F 73% 30.02 in - NE 10.4 mph - N/A   Unknown
4:56 PM 66.9 °F 55.9 °F 68% 30.01 in - NE 11.5 mph - N/A   Unknown
5:56 PM 64.9 °F 53.1 °F 65% 30.01 in - NE 9.2 mph - N/A   Unknown
6:56 PM 64.0 °F 52.0 °F 65% 30.00 in - NNE 6.9 mph - N/A   Unknown
7:56 PM 61.0 °F 53.1 °F 75% 30.00 in - ENE 3.5 mph - 0.03 in   Unknown
8:56 PM 59.0 °F 55.0 °F 87% 29.99 in - Calm Calm - 0.01 in   Unknown
9:56 PM 59.0 °F 54.0 °F 83% 29.99 in - South 4.6 mph - N/A   Unknown
10:56 PM 59.0 °F 53.1 °F 81% 29.98 in - Calm Calm - N/A   Unknown
11:56 PM 57.9 °F 54.0 °F 87% 29.97 in - SSW 5.8 mph - N/A   Unknown